Vancouver Int'l Airport, British Columbia

Past 24 Hour Conditions

Date / Time
(PST)
Conditions Temp
(°C)
Humidity
(%)
Dew Point
(°C)
Wind
(km/h)
Pressure
(kPa)
Visibility
(km)
26 February 2015
19:00 Light Rain 9   84 6 ENE 10 101.4 24
18:00 Mostly Cloudy 9   83 6 E 9 101.5 24
17:00 Mostly Cloudy 9   83 6 ESE 10 101.6 24
16:00 Mostly Cloudy 9   81 6 ESE 13 101.7 24
15:00 Mostly Cloudy 9   80 6 SE 11 101.8 24
14:00 Mostly Cloudy 9   79 6 ESE 12 101.9 24
13:00 Mostly Cloudy 9   83 6 ESE 12 102.0 24
12:00 Light Drizzle 8 88 7 E 13 102.1 24
11:00 Mostly Cloudy 8 89 6 E 10 102.1 24
10:00 Mostly Cloudy 8 91 6 E 10 102.2 24
9:00 Mostly Cloudy 7 91 6 E 9 102.2 24
8:00 Mostly Cloudy 7 94 6 E 10 102.2 13
7:00 Mostly Cloudy 7 94 6 E 8 102.2 11
6:00 Mostly Cloudy 6 93 5 E 7 102.3 24
5:00 Mostly Cloudy 6 95 5 NE 8 102.3 24
4:00 Mostly Cloudy 6 94 5 NNE 3 102.4 24
3:00 Mostly Cloudy 5   93 4 calm 102.4 24
2:00 Mostly Cloudy 6 92 5 N 3 102.5 24
1:00 Mostly Cloudy 6 93 5 N 2 102.5 19
00:00 Mostly Cloudy 6 97 6 ENE 5 102.5 19
25 February 2015
23:00 Mostly Cloudy 6 96 5 E 8 102.5 24
22:00 Mostly Cloudy 7 93 6 ENE 4 102.6 19
21:00 Mostly Cloudy 7 97 6 NNE 6 102.6 19
20:00 Mostly Cloudy 7 95 6 N 2 102.6 19
19:00 Mostly Cloudy 8 91 6 ESE 6 102.6 19
N/A Not available
↑ Highest temperature
↓ Lowest temperature

If you require additional historical weather information, please visit Climate Data Online.

What we are doing

Date modified: